SIA305 EGLL-WSSS

Flight info

Callsign SIA305
Flight time N/A
Altitude 29000
Route DET2F DET L6 DVR UL9 KONAN UL607 MATUG DCT GUBAX DCT BOREP/N0493F310 DCT ENITA DCT PEPIK DCT ERGOM DCT TEGRI DCT DINRO N743 UDROS UN743 GAKSU UT310 SIN UW704 CRM/N0480F270 W71 TBN/N0495F310 UP146 MILQO/N0489F330 UP146 YAVUZ UB374 INDUR N449 SULEL M747 BODKA P130 MAMED B449 DOLOS B475 NINOP A909 LEMOD N644 DI A466 ASARI/N0493F350 A466 DPN L759 ANPAN/N0493F370 L759 PUT B579 VPL Y503 RINBA Y507 MAKNA Y511 TOPOR A464 ARAMA DCT TEBUN TEBUN1A
Aircraft B77W/H-SDE1E2E3FGHIJ4J5M1P2RWXYZ/LB1D1

Departure

Time N/A
Airport London Heathrow Airport (EGLL)

Arrival

Time 2026-05-03 23:52
Airport Singapore Changi Airport (WSSS)
Time Latitude Longitude Altitude Speed Heading
2026-05-03 20:15 21.24774 84.53541 34796 ft 511 kts 132°
2026-05-03 20:15 21.20227 84.59392 34806 ft 511 kts 132°
2026-05-03 20:16 21.15676 84.65242 34815 ft 511 kts 132°
2026-05-03 20:16 21.11118 84.71093 34789 ft 512 kts 132°
2026-05-03 20:17 21.06556 84.76945 34790 ft 512 kts 132°
2026-05-03 20:17 21.01991 84.82794 34801 ft 512 kts 132°
2026-05-03 20:18 20.97428 84.88634 34800 ft 511 kts 132°
2026-05-03 20:18 20.92863 84.94472 34805 ft 511 kts 132°
2026-05-03 20:19 20.88299 85.00301 34795 ft 511 kts 132°
2026-05-03 20:19 20.83736 85.06123 34808 ft 511 kts 132°
2026-05-03 20:20 20.79174 85.11938 34811 ft 510 kts 132°
2026-05-03 20:20 20.74614 85.17744 34807 ft 510 kts 132°
2026-05-03 20:21 20.70053 85.23546 34809 ft 509 kts 132°
2026-05-03 20:21 20.65496 85.29336 34802 ft 509 kts 132°
2026-05-03 20:22 20.60938 85.35122 34803 ft 509 kts 132°
2026-05-03 20:22 20.56381 85.40901 34808 ft 509 kts 132°
2026-05-03 20:23 20.51822 85.46676 34814 ft 509 kts 132°
2026-05-03 20:23 20.47363 85.52320 34809 ft 508 kts 132°
2026-05-03 20:24 20.42805 85.58083 34812 ft 508 kts 132°
2026-05-03 20:24 20.38243 85.63845 34820 ft 508 kts 132°
2026-05-03 20:25 20.33711 85.69564 34826 ft 508 kts 132°
2026-05-03 20:25 20.29151 85.75315 34830 ft 508 kts 132°
2026-05-03 20:26 20.24573 85.81058 34829 ft 508 kts 133°
2026-05-03 20:26 20.19595 85.86362 34829 ft 506 kts 138°
2026-05-03 20:27 20.14490 85.91523 34829 ft 506 kts 138°
2026-05-03 20:27 20.10599 85.95494 34821 ft 506 kts 138°
2026-05-03 20:28 20.05533 86.00702 34818 ft 506 kts 138°
2026-05-03 20:28 20.00470 86.05906 34806 ft 506 kts 138°
2026-05-03 20:29 19.95381 86.11078 34801 ft 506 kts 139°
2026-05-03 20:29 19.90280 86.16226 34801 ft 506 kts 138°
2026-05-03 20:30 19.85271 86.21468 34795 ft 506 kts 137°
2026-05-03 20:30 19.80298 86.26753 34802 ft 505 kts 137°
2026-05-03 20:31 19.75321 86.32011 34797 ft 505 kts 137°
2026-05-03 20:31 19.70333 86.37256 34797 ft 504 kts 137°
2026-05-03 20:32 19.65352 86.42489 34798 ft 504 kts 137°
2026-05-03 20:32 19.60366 86.47718 34792 ft 504 kts 137°
2026-05-03 20:33 19.55367 86.52921 34791 ft 503 kts 138°
2026-05-03 20:33 19.50370 86.58111 34793 ft 503 kts 138°
2026-05-03 20:34 19.45372 86.63304 34795 ft 503 kts 138°
2026-05-03 20:34 19.40378 86.68490 34797 ft 503 kts 138°
2026-05-03 20:35 19.35385 86.73672 34803 ft 503 kts 138°
2026-05-03 20:35 19.30389 86.78852 34799 ft 503 kts 138°
2026-05-03 20:36 19.25392 86.84028 34800 ft 502 kts 138°
2026-05-03 20:36 19.20396 86.89198 34800 ft 502 kts 138°
2026-05-03 20:37 19.16241 86.93495 34807 ft 502 kts 138°
2026-05-03 20:37 19.11242 86.98660 34805 ft 502 kts 138°
2026-05-03 20:38 19.06244 87.03820 34806 ft 502 kts 138°
2026-05-03 20:38 19.01244 87.08976 34807 ft 502 kts 138°
2026-05-03 20:39 18.96241 87.14132 34809 ft 502 kts 138°
2026-05-03 20:39 18.91242 87.19278 34810 ft 502 kts 138°
2026-05-03 20:40 18.86244 87.24419 34810 ft 502 kts 138°
2026-05-03 20:40 18.81242 87.29560 34815 ft 502 kts 138°
2026-05-03 20:41 18.76242 87.34694 34813 ft 501 kts 138°
2026-05-03 20:41 18.71238 87.39828 34813 ft 501 kts 138°
2026-05-03 20:42 18.66238 87.44954 34813 ft 501 kts 139°
2026-05-03 20:42 18.61239 87.50074 34810 ft 501 kts 139°
2026-05-03 20:43 18.56239 87.55190 34810 ft 501 kts 139°
2026-05-03 20:43 18.51236 87.60305 34810 ft 501 kts 139°
2026-05-03 20:44 18.46229 87.65420 34813 ft 501 kts 139°
2026-05-03 20:44 18.41218 87.70535 34813 ft 502 kts 139°
2026-05-03 20:45 18.36203 87.75650 34814 ft 502 kts 139°
2026-05-03 20:45 18.31185 87.80766 34814 ft 502 kts 139°
2026-05-03 20:46 18.26166 87.85892 34815 ft 503 kts 138°
2026-05-03 20:46 18.21179 87.91058 34813 ft 503 kts 138°
2026-05-03 20:47 18.16195 87.96234 34813 ft 504 kts 138°
2026-05-03 20:47 18.11202 88.01406 34814 ft 504 kts 138°
2026-05-03 20:48 18.06208 88.06567 34815 ft 503 kts 138°
2026-05-03 20:48 18.01248 88.11688 34815 ft 503 kts 138°
2026-05-03 20:49 17.96256 88.16838 34812 ft 503 kts 138°
2026-05-03 20:49 17.91265 88.21983 34821 ft 502 kts 138°
2026-05-03 20:50 17.86278 88.27118 34816 ft 502 kts 138°
2026-05-03 20:50 17.81294 88.32248 34816 ft 501 kts 138°
2026-05-03 20:51 17.76314 88.37369 34814 ft 501 kts 138°
2026-05-03 20:51 17.71333 88.42486 34820 ft 501 kts 138°
2026-05-03 20:52 17.66357 88.47595 34819 ft 501 kts 138°
2026-05-03 20:52 17.61377 88.52703 34817 ft 501 kts 137°
2026-05-03 20:53 17.56395 88.57808 34821 ft 501 kts 137°
2026-05-03 20:53 17.51410 88.62914 34821 ft 501 kts 137°
2026-05-03 20:54 17.46420 88.68020 34822 ft 501 kts 137°
2026-05-03 20:54 17.38937 88.75670 34820 ft 501 kts 137°
2026-05-03 20:55 17.33943 88.80770 34816 ft 501 kts 137°
2026-05-03 20:55 17.28953 88.85863 34821 ft 502 kts 137°
2026-05-03 20:56 17.23955 88.90961 34835 ft 502 kts 137°
2026-05-03 20:56 17.18955 88.96056 34818 ft 502 kts 137°
2026-05-03 20:57 17.14019 89.01158 34823 ft 502 kts 137°
2026-05-03 20:57 17.10093 89.05246 34833 ft 503 kts 137°
2026-05-03 20:58 17.05134 89.10404 34828 ft 503 kts 137°
2026-05-03 20:58 17.00164 89.15559 34824 ft 504 kts 137°
2026-05-03 20:59 16.95189 89.20711 34826 ft 504 kts 137°
2026-05-03 20:59 16.90207 89.25866 34834 ft 504 kts 137°
2026-05-03 21:00 16.86032 89.30183 34822 ft 504 kts 137°
2026-05-03 21:00 16.80237 89.36171 34825 ft 504 kts 137°
2026-05-03 21:01 16.75247 89.41323 34829 ft 504 kts 137°
2026-05-03 21:01 16.70262 89.46464 34836 ft 504 kts 137°
2026-05-03 21:02 16.65280 89.51600 34835 ft 503 kts 137°
2026-05-03 21:02 16.60299 89.56730 34827 ft 503 kts 137°
2026-05-03 21:03 16.55323 89.61852 34840 ft 502 kts 137°
2026-05-03 21:03 16.50380 89.66934 34838 ft 502 kts 137°
2026-05-03 21:04 16.45379 89.72074 34832 ft 502 kts 137°
2026-05-03 21:04 16.40441 89.77144 34828 ft 502 kts 137°
2026-05-03 21:05 16.35474 89.82241 34834 ft 502 kts 137°
2026-05-03 21:05 16.30500 89.87341 34840 ft 502 kts 137°
2026-05-03 21:06 16.25529 89.92434 34844 ft 502 kts 137°
2026-05-03 21:06 16.20554 89.97527 34842 ft 502 kts 137°
2026-05-03 21:07 16.15575 90.02620 34836 ft 502 kts 137°
2026-05-03 21:07 16.10597 90.07710 34836 ft 502 kts 137°
2026-05-03 21:08 16.05615 90.12801 34847 ft 502 kts 137°
2026-05-03 21:08 16.00632 90.17893 34844 ft 502 kts 137°
2026-05-03 21:09 15.95701 90.23038 34835 ft 503 kts 136°
2026-05-03 21:09 15.90789 90.28209 34841 ft 503 kts 136°
2026-05-03 21:10 15.85872 90.33373 34848 ft 503 kts 136°
2026-05-03 21:10 15.80950 90.38526 34843 ft 503 kts 136°
2026-05-03 21:11 15.76020 90.43677 34846 ft 503 kts 136°
2026-05-03 21:11 15.71094 90.48823 34845 ft 502 kts 137°
2026-05-03 21:12 15.66165 90.53967 34841 ft 502 kts 136°
2026-05-03 21:12 15.61240 90.59104 34848 ft 502 kts 136°
2026-05-03 21:13 15.56314 90.64238 34851 ft 502 kts 136°
2026-05-03 21:13 15.51386 90.69372 34854 ft 502 kts 137°
2026-05-03 21:14 15.46463 90.74495 34854 ft 501 kts 137°
2026-05-03 21:14 15.41542 90.79613 34855 ft 501 kts 137°
2026-05-03 21:15 15.36620 90.84728 34852 ft 501 kts 137°
2026-05-03 21:15 15.31704 90.89835 34852 ft 500 kts 137°
2026-05-03 21:16 15.26786 90.94938 34849 ft 500 kts 137°
2026-05-03 21:16 15.21871 91.00036 34852 ft 500 kts 137°
2026-05-03 21:17 15.17784 91.04272 34852 ft 500 kts 137°
2026-05-03 21:17 15.12040 91.10221 34850 ft 500 kts 137°
2026-05-03 21:18 15.07121 91.15312 34856 ft 500 kts 137°
2026-05-03 21:18 15.02237 91.20364 34854 ft 500 kts 137°
2026-05-03 21:19 14.97317 91.25448 34857 ft 500 kts 137°
2026-05-03 21:19 14.92392 91.30534 34854 ft 500 kts 137°
2026-05-03 21:20 14.87470 91.35615 34856 ft 500 kts 137°
2026-05-03 21:20 14.82544 91.40695 34857 ft 500 kts 137°
2026-05-03 21:21 14.77619 91.45772 34855 ft 500 kts 137°
2026-05-03 21:21 14.72692 91.50847 34857 ft 500 kts 137°
2026-05-03 21:22 14.67764 91.55920 34853 ft 500 kts 137°
2026-05-03 21:22 14.62832 91.60993 34856 ft 500 kts 137°
2026-05-03 21:23 14.57904 91.66058 34859 ft 500 kts 137°
2026-05-03 21:23 14.52975 91.71121 34858 ft 500 kts 137°
2026-05-03 21:24 14.48878 91.75328 34861 ft 500 kts 137°
2026-05-03 21:24 14.43945 91.80390 34864 ft 500 kts 137°
2026-05-03 21:25 14.39015 91.85445 34862 ft 500 kts 137°
2026-05-03 21:25 14.34085 91.90497 34863 ft 500 kts 137°
2026-05-03 21:26 14.29149 91.95553 34859 ft 500 kts 137°
2026-05-03 21:26 14.24219 92.00604 34861 ft 500 kts 137°
2026-05-03 21:27 14.19353 92.05718 34861 ft 500 kts 136°
2026-05-03 21:27 14.15618 92.09684 34858 ft 500 kts 136°
2026-05-03 21:28 14.10767 92.14817 34861 ft 500 kts 136°
2026-05-03 21:28 14.05872 92.19976 34863 ft 500 kts 136°
2026-05-03 21:29 14.01040 92.25062 34860 ft 500 kts 136°
2026-05-03 21:29 13.96174 92.30185 34861 ft 500 kts 136°
2026-05-03 21:30 13.91283 92.35287 34863 ft 500 kts 137°
2026-05-03 21:30 13.86299 92.40280 34866 ft 500 kts 138°
2026-05-03 21:31 13.81294 92.45249 34866 ft 500 kts 138°
2026-05-03 21:31 13.76301 92.50228 34864 ft 500 kts 138°
2026-05-03 21:32 13.71314 92.55217 34863 ft 500 kts 138°
2026-05-03 21:32 13.66331 92.60204 34865 ft 500 kts 138°
2026-05-03 21:33 13.61341 92.65194 34863 ft 500 kts 138°
2026-05-03 21:33 13.56354 92.70176 34865 ft 500 kts 138°
2026-05-03 21:34 13.51367 92.75155 34866 ft 500 kts 138°
2026-05-03 21:34 13.46382 92.80130 34869 ft 500 kts 138°
2026-05-03 21:35 13.41400 92.85097 34867 ft 499 kts 138°
2026-05-03 21:35 13.36412 92.90068 34869 ft 499 kts 138°
2026-05-03 21:36 13.31429 92.95032 34870 ft 499 kts 138°
2026-05-03 21:36 13.26443 92.99995 34869 ft 499 kts 138°
2026-05-03 21:37 13.21491 93.04921 34865 ft 499 kts 138°
2026-05-03 21:37 13.16508 93.09874 34871 ft 499 kts 138°
2026-05-03 21:38 13.11530 93.14821 34872 ft 498 kts 138°
2026-05-03 21:38 13.06551 93.19765 34871 ft 498 kts 138°
2026-05-03 21:39 13.01573 93.24705 34867 ft 498 kts 138°
2026-05-03 21:39 12.96600 93.29638 34868 ft 497 kts 138°
2026-05-03 21:40 12.91627 93.34567 34867 ft 497 kts 138°
2026-05-03 21:40 12.86652 93.39496 34869 ft 497 kts 138°
2026-05-03 21:41 12.81682 93.44416 34867 ft 497 kts 138°
2026-05-03 21:41 12.76711 93.49336 34868 ft 497 kts 137°
2026-05-03 21:42 12.71735 93.54256 34867 ft 497 kts 137°
2026-05-03 21:42 12.66764 93.59170 34866 ft 497 kts 137°
2026-05-03 21:43 12.61790 93.64084 34865 ft 497 kts 137°
2026-05-03 21:43 12.56848 93.68962 34866 ft 497 kts 137°
2026-05-03 21:44 12.51869 93.73875 34865 ft 497 kts 137°
2026-05-03 21:44 12.46889 93.78787 34866 ft 497 kts 137°
2026-05-03 21:45 12.41908 93.83696 34865 ft 497 kts 137°
2026-05-03 21:45 12.36930 93.88601 34866 ft 497 kts 137°
2026-05-03 21:46 12.31949 93.93506 34864 ft 497 kts 137°
2026-05-03 21:46 12.26970 93.98406 34867 ft 497 kts 137°
2026-05-03 21:47 12.21988 94.03307 34866 ft 497 kts 137°
2026-05-03 21:47 12.17031 94.08218 34865 ft 496 kts 137°
2026-05-03 21:48 12.12084 94.13142 34865 ft 496 kts 137°
2026-05-03 21:48 12.07134 94.18063 34867 ft 496 kts 137°
2026-05-03 21:49 12.02182 94.22979 34864 ft 496 kts 137°
2026-05-03 21:49 11.97232 94.27889 34866 ft 496 kts 137°
2026-05-03 21:50 11.92316 94.32764 34865 ft 496 kts 137°
2026-05-03 21:50 11.87332 94.37704 34866 ft 496 kts 137°
2026-05-03 21:51 11.82460 94.42621 34864 ft 496 kts 133°
2026-05-03 21:51 11.77915 94.47915 34867 ft 496 kts 132°
2026-05-03 21:52 11.73420 94.53261 34860 ft 496 kts 131°
2026-05-03 21:52 11.68913 94.58592 34861 ft 496 kts 132°
2026-05-03 21:53 11.64393 94.63905 34861 ft 496 kts 132°
2026-05-03 21:53 11.59871 94.69206 34857 ft 495 kts 132°
2026-05-03 21:54 11.55345 94.74509 34858 ft 495 kts 132°
2026-05-03 21:54 11.50920 94.79693 34865 ft 495 kts 132°
2026-05-03 21:55 11.46398 94.84988 34864 ft 495 kts 132°
2026-05-03 21:55 11.41876 94.90282 34864 ft 495 kts 132°
2026-05-03 21:56 11.37352 94.95574 34859 ft 495 kts 132°
2026-05-03 21:56 11.32828 95.00864 34859 ft 495 kts 132°
2026-05-03 21:57 11.28302 95.06154 34861 ft 495 kts 132°
2026-05-03 21:57 11.24794 95.10250 34864 ft 495 kts 132°
2026-05-03 21:58 11.20265 95.15538 34861 ft 495 kts 132°
2026-05-03 21:58 11.15748 95.20810 34861 ft 495 kts 132°
2026-05-03 21:59 11.11218 95.26093 34866 ft 495 kts 131°
2026-05-03 21:59 11.06687 95.31375 34866 ft 495 kts 131°
2026-05-03 22:00 11.02156 95.36654 34865 ft 495 kts 131°
2026-05-03 22:00 10.97622 95.41934 34863 ft 495 kts 131°
2026-05-03 22:01 10.93087 95.47212 34864 ft 495 kts 131°
2026-05-03 22:01 10.88557 95.52487 34862 ft 495 kts 131°
2026-05-03 22:02 10.84025 95.57759 34863 ft 495 kts 131°
2026-05-03 22:02 10.79485 95.63031 34868 ft 495 kts 131°
2026-05-03 22:03 10.74946 95.68301 34863 ft 495 kts 131°
2026-05-03 22:03 10.70408 95.73570 34863 ft 495 kts 131°
2026-05-03 22:04 10.65865 95.78842 34862 ft 495 kts 131°
2026-05-03 22:04 10.61327 95.84106 34864 ft 495 kts 131°
2026-05-03 22:05 10.56785 95.89372 34865 ft 495 kts 131°
2026-05-03 22:05 10.52246 95.94632 34864 ft 495 kts 131°
2026-05-03 22:06 10.47709 95.99887 34862 ft 495 kts 131°
2026-05-03 22:06 10.43167 96.05144 34862 ft 495 kts 131°
2026-05-03 22:07 10.38633 96.10391 34859 ft 494 kts 131°
2026-05-03 22:07 10.34095 96.15639 34862 ft 494 kts 131°
2026-05-03 22:08 10.29554 96.20889 34856 ft 494 kts 131°
2026-05-03 22:08 10.25016 96.26133 34862 ft 494 kts 131°
2026-05-03 22:09 10.20474 96.31378 34861 ft 495 kts 131°
2026-05-03 22:10 10.13660 96.39244 34858 ft 494 kts 131°
2026-05-03 22:10 10.09117 96.44485 34859 ft 494 kts 131°
2026-05-03 22:11 10.04609 96.49685 34855 ft 494 kts 131°
2026-05-03 22:11 10.00060 96.54901 34859 ft 493 kts 133°
2026-05-03 22:12 9.95119 96.59701 34860 ft 492 kts 138°
2026-05-03 22:12 9.90890 96.63615 34858 ft 491 kts 138°
2026-05-03 22:13 9.85851 96.68292 34858 ft 490 kts 137°
2026-05-03 22:13 9.80840 96.72980 34859 ft 490 kts 137°
2026-05-03 22:14 9.75843 96.77670 34858 ft 490 kts 137°
2026-05-03 22:14 9.70843 96.82362 34856 ft 490 kts 137°
2026-05-03 22:15 9.65875 96.87020 34857 ft 490 kts 137°
2026-05-03 22:15 9.60873 96.91708 34857 ft 490 kts 137°
2026-05-03 22:16 9.55871 96.96393 34858 ft 490 kts 137°
2026-05-03 22:16 9.50860 97.01084 34859 ft 490 kts 137°
2026-05-03 22:17 9.45849 97.05774 34859 ft 491 kts 137°
2026-05-03 22:17 9.40832 97.10466 34857 ft 491 kts 137°
2026-05-03 22:18 9.35820 97.15153 34856 ft 491 kts 137°
2026-05-03 22:18 9.30787 97.19857 35008 ft 494 kts 137°
2026-05-03 22:18 9.28265 97.22214 35321 ft 492 kts 137°
2026-05-03 22:19 9.25754 97.24559 35696 ft 490 kts 137°
2026-05-03 22:19 9.23260 97.26889 36059 ft 487 kts 137°
2026-05-03 22:19 9.20772 97.29213 36407 ft 485 kts 137°
2026-05-03 22:19 9.18297 97.31524 36730 ft 484 kts 137°
2026-05-03 22:20 9.15811 97.33844 36791 ft 488 kts 137°
2026-05-03 22:20 9.10808 97.38513 36843 ft 489 kts 137°
2026-05-03 22:21 9.05847 97.43141 36851 ft 482 kts 137°
2026-05-03 22:21 9.00917 97.47738 36865 ft 481 kts 137°
2026-05-03 22:22 8.96003 97.52318 36864 ft 481 kts 137°
2026-05-03 22:22 8.91081 97.56905 36866 ft 481 kts 137°
2026-05-03 22:23 8.86159 97.61491 36863 ft 481 kts 137°
2026-05-03 22:23 8.81228 97.66080 36864 ft 482 kts 137°
2026-05-03 22:24 8.76288 97.70675 36864 ft 483 kts 137°
2026-05-03 22:24 8.71342 97.75275 36865 ft 483 kts 137°
2026-05-03 22:25 8.66423 97.79849 36861 ft 484 kts 137°
2026-05-03 22:25 8.61466 97.84460 36869 ft 484 kts 137°
2026-05-03 22:26 8.56501 97.89073 36863 ft 485 kts 137°
2026-05-03 22:26 8.51537 97.93685 36867 ft 485 kts 137°
2026-05-03 22:27 8.46565 97.98297 36865 ft 485 kts 138°
2026-05-03 22:27 8.42958 98.01624 36864 ft 486 kts 138°
2026-05-03 22:28 8.37967 98.06221 36865 ft 486 kts 138°
2026-05-03 22:28 8.32971 98.10825 36867 ft 486 kts 138°
2026-05-03 22:29 8.27981 98.15424 36857 ft 486 kts 138°
2026-05-03 22:29 8.22988 98.20025 36859 ft 486 kts 138°
2026-05-03 22:30 8.17996 98.24624 36858 ft 486 kts 138°
2026-05-03 22:30 8.13004 98.29221 36858 ft 486 kts 138°
2026-05-03 22:31 8.07894 98.33672 36857 ft 485 kts 141°
2026-05-03 22:31 8.02645 98.37951 36861 ft 485 kts 142°
2026-05-03 22:32 7.97393 98.42230 36862 ft 485 kts 142°
2026-05-03 22:32 7.92156 98.46531 36866 ft 485 kts 141°
2026-05-03 22:33 7.86928 98.50834 36865 ft 485 kts 141°
2026-05-03 22:33 7.81702 98.55133 36864 ft 485 kts 141°
2026-05-03 22:34 7.76475 98.59432 36865 ft 485 kts 141°
2026-05-03 22:34 7.71249 98.63726 36869 ft 485 kts 141°
2026-05-03 22:35 7.66020 98.68022 36869 ft 485 kts 141°
2026-05-03 22:35 7.60833 98.72286 36870 ft 484 kts 141°
2026-05-03 22:36 7.55611 98.76578 36870 ft 484 kts 141°
2026-05-03 22:36 7.50392 98.80866 36866 ft 484 kts 141°
2026-05-03 22:37 7.45170 98.85153 36870 ft 484 kts 141°
2026-05-03 22:37 7.39948 98.89437 36869 ft 484 kts 141°
2026-05-03 22:38 7.34730 98.93717 36868 ft 484 kts 141°
2026-05-03 22:38 7.29507 98.98000 36868 ft 484 kts 141°
2026-05-03 22:39 7.24279 99.02288 36870 ft 485 kts 141°
2026-05-03 22:39 7.19053 99.06573 36869 ft 485 kts 141°
2026-05-03 22:40 7.13819 99.10862 36868 ft 485 kts 141°
2026-05-03 22:40 7.08582 99.15153 36868 ft 485 kts 141°
2026-05-03 22:41 7.03340 99.19446 36865 ft 486 kts 141°
2026-05-03 22:41 6.98095 99.23741 36866 ft 486 kts 141°
2026-05-03 22:42 6.92849 99.28035 36863 ft 486 kts 141°
2026-05-03 22:42 6.87605 99.32326 36864 ft 486 kts 141°
2026-05-03 22:43 6.82354 99.36623 36865 ft 486 kts 141°
2026-05-03 22:43 6.77103 99.40917 36866 ft 486 kts 141°
2026-05-03 22:44 6.71853 99.45209 36867 ft 486 kts 141°
2026-05-03 22:44 6.66600 99.49504 36864 ft 486 kts 141°
2026-05-03 22:45 6.61351 99.53793 36863 ft 486 kts 141°
2026-05-03 22:45 6.56099 99.58085 36862 ft 486 kts 141°
2026-05-03 22:46 6.50848 99.62374 36859 ft 486 kts 141°
2026-05-03 22:46 6.45582 99.66656 36858 ft 486 kts 142°
2026-05-03 22:47 6.40210 99.70790 36861 ft 486 kts 142°
2026-05-03 22:47 6.34893 99.74999 36854 ft 487 kts 138°
2026-05-03 22:48 6.30116 99.79817 36858 ft 487 kts 134°
2026-05-03 22:48 6.25429 99.84729 36858 ft 487 kts 134°
2026-05-03 22:49 6.20706 99.89617 36861 ft 487 kts 134°
2026-05-03 22:49 6.15967 99.94486 36864 ft 488 kts 134°
2026-05-03 22:50 6.11218 99.99364 36869 ft 488 kts 134°
2026-05-03 22:50 6.06464 100.04233 36873 ft 488 kts 134°
2026-05-03 22:51 6.01702 100.09094 36870 ft 488 kts 134°
2026-05-03 22:51 5.96940 100.13956 36868 ft 488 kts 134°
2026-05-03 22:52 5.92188 100.18809 36866 ft 487 kts 134°
2026-05-03 22:52 5.87434 100.23664 36867 ft 487 kts 135°
2026-05-03 22:53 5.82683 100.28515 36865 ft 487 kts 135°
2026-05-03 22:53 5.77931 100.33365 36865 ft 487 kts 135°
2026-05-03 22:54 5.73180 100.38214 36862 ft 487 kts 135°
2026-05-03 22:54 5.68454 100.43036 36860 ft 488 kts 135°
2026-05-03 22:55 5.63692 100.47893 36860 ft 488 kts 135°
2026-05-03 22:55 5.58932 100.52747 36863 ft 488 kts 135°
2026-05-03 22:56 5.54161 100.57612 36861 ft 489 kts 135°
2026-05-03 22:56 5.49387 100.62478 36864 ft 489 kts 135°
2026-05-03 22:57 5.44615 100.67342 36869 ft 489 kts 135°
2026-05-03 22:57 5.41718 100.70294 36872 ft 489 kts 135°
2026-05-03 22:58 5.36333 100.74372 36883 ft 487 kts 154°
2026-05-03 22:58 5.29922 100.76315 36885 ft 486 kts 171°
2026-05-03 22:59 5.23216 100.77260 36875 ft 488 kts 172°
2026-05-03 22:59 5.16493 100.78233 36878 ft 489 kts 171°
2026-05-03 23:00 5.09775 100.79278 36876 ft 489 kts 171°
2026-05-03 23:00 5.03041 100.80342 36877 ft 490 kts 171°
2026-05-03 23:01 4.96302 100.81400 36877 ft 490 kts 171°
2026-05-03 23:01 4.89571 100.82464 36872 ft 490 kts 171°
2026-05-03 23:02 4.82845 100.83534 36881 ft 489 kts 171°
2026-05-03 23:02 4.76120 100.84603 36878 ft 489 kts 171°
2026-05-03 23:03 4.69411 100.85668 36878 ft 488 kts 171°
2026-05-03 23:03 4.62699 100.86733 36875 ft 488 kts 171°
2026-05-03 23:04 4.56007 100.87796 36880 ft 487 kts 171°
2026-05-03 23:04 4.49324 100.88885 36875 ft 486 kts 168°
2026-05-03 23:05 4.42862 100.90842 36879 ft 485 kts 157°
2026-05-03 23:05 4.36770 100.93746 36880 ft 485 kts 153°
2026-05-03 23:06 4.30725 100.96759 36869 ft 485 kts 153°
2026-05-03 23:06 4.24660 100.99747 36873 ft 486 kts 154°
2026-05-03 23:07 4.18574 101.02715 36873 ft 486 kts 154°
2026-05-03 23:07 4.12484 101.05677 36873 ft 487 kts 154°
2026-05-03 23:08 4.06389 101.08644 36876 ft 487 kts 154°
2026-05-03 23:08 4.00290 101.11613 36873 ft 487 kts 154°
2026-05-03 23:09 3.94189 101.14583 36874 ft 488 kts 154°
2026-05-03 23:09 3.88086 101.17555 36877 ft 488 kts 154°
2026-05-03 23:10 3.82028 101.20503 36879 ft 488 kts 154°
2026-05-03 23:10 3.75925 101.23479 36879 ft 488 kts 153°
2026-05-03 23:11 3.69893 101.26588 36878 ft 488 kts 152°
2026-05-03 23:11 3.63882 101.29756 36875 ft 488 kts 152°
2026-05-03 23:12 3.57867 101.32903 36875 ft 488 kts 152°
2026-05-03 23:12 3.51844 101.36038 36877 ft 488 kts 152°
2026-05-03 23:13 3.45820 101.39170 36884 ft 488 kts 152°
2026-05-03 23:13 3.39801 101.42301 36883 ft 488 kts 152°
2026-05-03 23:14 3.33781 101.45432 36885 ft 487 kts 152°
2026-05-03 23:14 3.27701 101.48435 36883 ft 487 kts 155°
2026-05-03 23:15 3.21521 101.51223 36885 ft 487 kts 155°
2026-05-03 23:15 3.15337 101.54016 36885 ft 487 kts 155°
2026-05-03 23:16 3.09170 101.56846 36886 ft 487 kts 155°
2026-05-03 23:16 3.03017 101.59686 36882 ft 487 kts 155°
2026-05-03 23:17 2.96861 101.62526 36878 ft 487 kts 155°
2026-05-03 23:17 2.90710 101.65362 36859 ft 487 kts 155°
2026-05-03 23:18 2.84562 101.68194 36856 ft 487 kts 155°
2026-05-03 23:18 2.78411 101.71029 36858 ft 486 kts 155°
2026-05-03 23:19 2.72267 101.73860 36855 ft 486 kts 155°
2026-05-03 23:19 2.66180 101.76800 36858 ft 486 kts 153°
2026-05-03 23:20 2.60156 101.79761 36857 ft 485 kts 154°
2026-05-03 23:20 2.54394 101.83231 36858 ft 484 kts 140°
2026-05-03 23:21 2.49678 101.88012 36864 ft 484 kts 127°
2026-05-03 23:21 2.45664 101.93411 36864 ft 484 kts 126°
2026-05-03 23:22 2.39665 102.01545 36881 ft 485 kts 127°
2026-05-03 23:22 2.35618 102.06940 36881 ft 485 kts 127°
2026-05-03 23:23 2.31558 102.12330 36885 ft 485 kts 127°
2026-05-03 23:23 2.27494 102.17726 36883 ft 486 kts 127°
2026-05-03 23:24 2.23433 102.23121 36885 ft 486 kts 127°
2026-05-03 23:24 2.19372 102.28518 36884 ft 486 kts 127°
2026-05-03 23:25 2.15310 102.33915 36887 ft 486 kts 127°
2026-05-03 23:25 2.11248 102.39311 36886 ft 485 kts 127°
2026-05-03 23:26 2.07189 102.44703 36890 ft 485 kts 127°
2026-05-03 23:26 2.03134 102.50090 36891 ft 485 kts 127°
2026-05-03 23:27 1.99078 102.55476 36893 ft 485 kts 127°
2026-05-03 23:27 1.96088 102.59449 36891 ft 485 kts 127°
2026-05-03 23:28 1.92045 102.64821 36792 ft 481 kts 127°
2026-05-03 23:28 1.90034 102.67494 36479 ft 482 kts 127°
2026-05-03 23:28 1.88016 102.70175 35913 ft 484 kts 126°
2026-05-03 23:29 1.85990 102.72867 35155 ft 485 kts 126°
2026-05-03 23:29 1.83954 102.75573 34302 ft 488 kts 126°
2026-05-03 23:29 1.81931 102.78261 33390 ft 492 kts 126°
2026-05-03 23:29 1.79870 102.81001 32415 ft 495 kts 126°
2026-05-03 23:30 1.77793 102.83760 31311 ft 498 kts 126°
2026-05-03 23:30 1.75728 102.86504 30378 ft 492 kts 126°
2026-05-03 23:30 1.73738 102.89257 29666 ft 488 kts 123°
2026-05-03 23:30 1.72003 102.92172 28912 ft 485 kts 118°
2026-05-03 23:31 1.70445 102.95139 28225 ft 480 kts 117°
2026-05-03 23:31 1.68911 102.98088 27566 ft 476 kts 117°
2026-05-03 23:31 1.67379 103.01005 26925 ft 472 kts 117°
2026-05-03 23:31 1.65845 103.03888 26288 ft 468 kts 118°
2026-05-03 23:32 1.64312 103.06748 25649 ft 465 kts 118°
2026-05-03 23:32 1.62610 103.09463 25003 ft 460 kts 128°
2026-05-03 23:32 1.60367 103.11723 24387 ft 458 kts 140°
2026-05-03 23:32 1.57752 103.13535 23769 ft 457 kts 150°
2026-05-03 23:33 1.54866 103.14817 23093 ft 453 kts 158°
2026-05-03 23:33 1.51929 103.15936 22412 ft 450 kts 158°
2026-05-03 23:33 1.49014 103.17041 21785 ft 446 kts 158°
2026-05-03 23:33 1.46127 103.18153 21173 ft 443 kts 158°
2026-05-03 23:34 1.43272 103.19270 20580 ft 439 kts 158°
2026-05-03 23:34 1.40448 103.20390 20140 ft 432 kts 157°
2026-05-03 23:34 1.37669 103.21499 19935 ft 429 kts 157°
2026-05-03 23:34 1.34922 103.22598 19486 ft 423 kts 157°
2026-05-03 23:35 1.32204 103.23684 18978 ft 419 kts 157°
2026-05-03 23:35 1.29497 103.24765 18432 ft 417 kts 157°
2026-05-03 23:35 1.26809 103.25837 17861 ft 415 kts 157°
2026-05-03 23:35 1.24190 103.26913 17104 ft 401 kts 154°
2026-05-03 23:36 1.21753 103.28182 15988 ft 390 kts 149°
2026-05-03 23:36 1.19424 103.29573 15424 ft 385 kts 147°
2026-05-03 23:36 1.17175 103.30947 15248 ft 374 kts 148°
2026-05-03 23:36 1.14981 103.32269 15103 ft 363 kts 148°
2026-05-03 23:37 1.12839 103.33536 14939 ft 353 kts 148°
2026-05-03 23:37 1.10753 103.34754 14772 ft 343 kts 149°
2026-05-03 23:37 1.08721 103.35931 14643 ft 332 kts 149°
2026-05-03 23:37 1.06749 103.37071 14510 ft 323 kts 149°
2026-05-03 23:38 1.04839 103.38173 14449 ft 311 kts 149°
2026-05-03 23:38 1.02994 103.39237 14340 ft 301 kts 149°
2026-05-03 23:38 1.01208 103.40267 14235 ft 292 kts 149°
2026-05-03 23:38 0.99482 103.41266 14113 ft 281 kts 146°
2026-05-03 23:39 0.98088 103.42596 13991 ft 283 kts 121°
2026-05-03 23:39 0.97383 103.44424 13649 ft 283 kts 97°
2026-05-03 23:39 0.97213 103.46363 13313 ft 279 kts 94°
2026-05-03 23:39 0.97079 103.48299 12986 ft 278 kts 94°
2026-05-03 23:40 0.96941 103.50216 12676 ft 276 kts 94°
2026-05-03 23:40 0.96796 103.52124 12346 ft 275 kts 94°
2026-05-03 23:40 0.96647 103.54024 12018 ft 274 kts 94°
2026-05-03 23:40 0.96499 103.55898 11703 ft 274 kts 94°
2026-05-03 23:41 0.96444 103.57789 11351 ft 272 kts 85°
2026-05-03 23:41 0.96683 103.59659 11033 ft 271 kts 81°
2026-05-03 23:41 0.96992 103.61543 10711 ft 271 kts 81°
2026-05-03 23:41 0.97285 103.63382 10378 ft 272 kts 81°
2026-05-03 23:42 0.97567 103.65273 10042 ft 272 kts 82°
2026-05-03 23:42 0.97832 103.67122 9691 ft 270 kts 82°
2026-05-03 23:42 0.98093 103.68979 9326 ft 265 kts 82°
2026-05-03 23:42 0.98261 103.70185 9112 ft 264 kts 82°
2026-05-03 23:43 0.98687 103.71943 8745 ft 259 kts 63°
2026-05-03 23:43 0.99624 103.73450 8469 ft 254 kts 56°
2026-05-03 23:43 1.00596 103.74922 8149 ft 253 kts 57°
2026-05-03 23:43 1.01560 103.76393 7851 ft 253 kts 57°
2026-05-03 23:44 1.02828 103.78344 7431 ft 252 kts 57°
2026-05-03 23:44 1.03472 103.79338 7219 ft 252 kts 57°
2026-05-03 23:44 1.04420 103.80808 6919 ft 252 kts 57°
2026-05-03 23:44 1.05369 103.82281 6609 ft 252 kts 57°
2026-05-03 23:45 1.06316 103.83754 6299 ft 252 kts 57°
2026-05-03 23:45 1.07252 103.85206 5974 ft 246 kts 55°
2026-05-03 23:45 1.08427 103.86354 5649 ft 229 kts 29°
2026-05-03 23:45 1.09785 103.87044 5401 ft 212 kts 25°
2026-05-03 23:46 1.11087 103.87634 5039 ft 201 kts 23°
2026-05-03 23:46 1.12353 103.88181 4644 ft 196 kts 22°
2026-05-03 23:46 1.13591 103.88709 4382 ft 192 kts 22°
2026-05-03 23:46 1.14832 103.89236 4133 ft 196 kts 22°
2026-05-03 23:47 1.16094 103.89771 3875 ft 197 kts 22°
2026-05-03 23:47 1.17356 103.90306 3625 ft 196 kts 22°
2026-05-03 23:47 1.18602 103.90835 3370 ft 194 kts 22°
2026-05-03 23:47 1.19838 103.91359 3117 ft 192 kts 22°
2026-05-03 23:48 1.21072 103.91882 2869 ft 193 kts 22°
2026-05-03 23:48 1.22304 103.92405 2632 ft 192 kts 22°
2026-05-03 23:48 1.23528 103.92924 2378 ft 190 kts 22°
2026-05-03 23:48 1.24716 103.93428 2156 ft 179 kts 23°
2026-05-03 23:49 1.25817 103.93895 1899 ft 164 kts 23°
2026-05-03 23:49 1.26829 103.94325 1738 ft 156 kts 23°
2026-05-03 23:49 1.27834 103.94751 1513 ft 158 kts 23°
2026-05-03 23:49 1.28838 103.95177 1285 ft 155 kts 23°
2026-05-03 23:50 1.29820 103.95594 1071 ft 152 kts 23°
2026-05-03 23:50 1.30797 103.96008 899 ft 153 kts 23°
2026-05-03 23:50 1.31775 103.96423 713 ft 153 kts 22°
2026-05-03 23:50 1.32753 103.96835 513 ft 152 kts 22°
2026-05-03 23:51 1.33726 103.97247 307 ft 151 kts 22°
2026-05-03 23:51 1.34686 103.97656 117 ft 150 kts 22°
2026-05-03 23:51 1.35633 103.98057 36 ft 140 kts 22°
2026-05-03 23:51 1.36364 103.98364 35 ft 82 kts 23°
2026-05-03 23:52 1.36662 103.98526 35 ft 25 kts 41°
2026-05-03 23:52 1.36770 103.98649 35 ft 19 kts 53°
2026-05-03 23:52 1.36825 103.98721 35 ft 7 kts 52°
2026-05-03 23:52 1.36847 103.98761 35 ft 7 kts 82°
2026-05-03 23:53 1.36833 103.98810 35 ft 8 kts 110°
2026-05-03 23:53 1.36786 103.98830 35 ft 10 kts 187°
2026-05-03 23:53 1.36713 103.98804 35 ft 13 kts 203°
2026-05-03 23:53 1.36627 103.98768 35 ft 16 kts 203°
2026-05-03 23:54 1.36520 103.98723 35 ft 17 kts 203°
2026-05-03 23:54 1.36413 103.98677 35 ft 17 kts 203°
2026-05-03 23:54 1.36305 103.98632 35 ft 17 kts 203°
2026-05-03 23:54 1.36179 103.98579 35 ft 26 kts 202°
2026-05-03 23:55 1.36007 103.98508 35 ft 27 kts 202°
2026-05-03 23:55 1.35835 103.98434 35 ft 27 kts 203°
2026-05-03 23:55 1.35663 103.98363 35 ft 27 kts 202°
2026-05-03 23:55 1.35490 103.98291 35 ft 27 kts 204°
2026-05-03 23:56 1.35319 103.98217 35 ft 27 kts 203°
2026-05-03 23:56 1.35194 103.98164 35 ft 13 kts 201°
2026-05-03 23:56 1.35137 103.98190 35 ft 9 kts 108°
2026-05-03 23:56 1.35125 103.98256 35 ft 10 kts 108°
2026-05-03 23:57 1.35102 103.98315 35 ft 4 kts 113°
2026-05-03 23:57 1.35101 103.98317 35 ft 0 kts 113°